B11 EFRO-EFOU

Flight info

Callsign B11
Flight time 0h 29m
Altitude 2000
Route TEMMO KEMIJOKI HAKKE EFKE OUKKI TASKI
Aircraft HAWK/M-SDGIRY/C

Departure

Time 2026-05-07 07:45
Airport Rovaniemi Airport (EFRO)

Arrival

Time 2026-05-07 08:14
Airport Oulu Airport (EFOU)
Time Latitude Longitude Altitude Speed Heading
2026-05-07 07:40 66.57090 25.83151 653 ft 0 kts 262°
2026-05-07 07:41 66.57090 25.83148 653 ft 1 kts 262°
2026-05-07 07:42 66.57094 25.83121 655 ft 4 kts 321°
2026-05-07 07:42 66.57134 25.83188 652 ft 10 kts 57°
2026-05-07 07:42 66.57187 25.83263 651 ft 8 kts 354°
2026-05-07 07:42 66.57234 25.83248 651 ft 7 kts 354°
2026-05-07 07:43 66.57317 25.83278 649 ft 15 kts 53°
2026-05-07 07:43 66.57310 25.83534 643 ft 16 kts 96°
2026-05-07 07:43 66.57297 25.83828 638 ft 17 kts 97°
2026-05-07 07:43 66.57284 25.84081 638 ft 13 kts 98°
2026-05-07 07:44 66.57250 25.84265 639 ft 10 kts 146°
2026-05-07 07:44 66.57185 25.84334 637 ft 15 kts 177°
2026-05-07 07:44 66.56976 25.83995 631 ft 81 kts 217°
2026-05-07 07:44 66.56228 25.82535 852 ft 182 kts 215°
2026-05-07 07:45 66.55019 25.80109 1831 ft 267 kts 219°
2026-05-07 07:45 66.53708 25.75935 2092 ft 328 kts 247°
2026-05-07 07:45 66.53879 25.70365 2149 ft 327 kts 289°
2026-05-07 07:45 66.54832 25.65295 2265 ft 319 kts 300°
2026-05-07 07:46 66.55666 25.60274 2396 ft 311 kts 280°
2026-05-07 07:46 66.56100 25.54933 2388 ft 314 kts 280°
2026-05-07 07:46 66.56682 25.49691 2492 ft 308 kts 286°
2026-05-07 07:46 66.57082 25.44561 2590 ft 293 kts 258°
2026-05-07 07:47 66.55805 25.40794 2425 ft 289 kts 221°
2026-05-07 07:47 66.54257 25.37476 2136 ft 296 kts 220°
2026-05-07 07:47 66.52690 25.34150 2279 ft 297 kts 220°
2026-05-07 07:47 66.51094 25.30797 2199 ft 307 kts 220°
2026-05-07 07:48 66.49421 25.27436 2326 ft 305 kts 213°
2026-05-07 07:48 66.47377 25.27136 2332 ft 309 kts 156°
2026-05-07 07:48 66.45511 25.29871 2288 ft 313 kts 150°
2026-05-07 07:48 66.43617 25.32623 2256 ft 316 kts 150°
2026-05-07 07:49 66.41728 25.35426 2280 ft 317 kts 150°
2026-05-07 07:49 66.39796 25.38057 2370 ft 313 kts 157°
2026-05-07 07:49 66.37766 25.39901 2487 ft 304 kts 175°
2026-05-07 07:49 66.35690 25.39322 2302 ft 302 kts 191°
2026-05-07 07:50 66.33611 25.38390 1995 ft 306 kts 191°
2026-05-07 07:50 66.31516 25.37411 1798 ft 305 kts 192°
2026-05-07 07:50 66.29502 25.36189 1759 ft 299 kts 198°
2026-05-07 07:50 66.27555 25.34360 1756 ft 291 kts 188°
2026-05-07 07:51 66.25575 25.35203 1664 ft 291 kts 168°
2026-05-07 07:51 66.23674 25.34848 1656 ft 283 kts 199°
2026-05-07 07:51 66.21700 25.34595 1613 ft 291 kts 186°
2026-05-07 07:51 66.20323 25.31236 1667 ft 295 kts 229°
2026-05-07 07:52 66.18591 25.28288 1557 ft 309 kts 213°
2026-05-07 07:52 66.16945 25.24874 1598 ft 315 kts 245°
2026-05-07 07:52 66.16475 25.19430 1167 ft 333 kts 259°
2026-05-07 07:52 66.15964 25.13867 1198 ft 324 kts 231°
2026-05-07 07:53 66.14296 25.10763 1375 ft 308 kts 251°
2026-05-07 07:53 66.14211 25.05324 1220 ft 319 kts 269°
2026-05-07 07:53 66.13673 25.00205 1373 ft 311 kts 226°
2026-05-07 07:53 66.12320 24.95960 1322 ft 317 kts 247°
2026-05-07 07:54 66.12064 24.90516 1247 ft 323 kts 256°
2026-05-07 07:54 66.11044 24.85610 1411 ft 323 kts 233°
2026-05-07 07:54 66.09408 24.81959 1649 ft 322 kts 201°
2026-05-07 07:54 66.07188 24.81704 1745 ft 325 kts 175°
2026-05-07 07:55 66.04964 24.82328 2269 ft 314 kts 173°
2026-05-07 07:55 66.02788 24.83285 2234 ft 325 kts 166°
2026-05-07 07:55 66.00603 24.84827 2197 ft 331 kts 164°
2026-05-07 07:55 65.98373 24.86630 1627 ft 332 kts 163°
2026-05-07 07:56 65.96286 24.88412 1439 ft 302 kts 162°
2026-05-07 07:56 65.94452 24.88075 1520 ft 263 kts 213°
2026-05-07 07:56 65.92986 24.85497 1280 ft 257 kts 220°
2026-05-07 07:56 65.91610 24.82771 1183 ft 252 kts 219°
2026-05-07 07:57 65.90275 24.80113 1166 ft 245 kts 219°
2026-05-07 07:57 65.88949 24.77544 1044 ft 242 kts 218°
2026-05-07 07:57 65.87613 24.75081 996 ft 237 kts 218°
2026-05-07 07:57 65.86383 24.72411 1003 ft 234 kts 226°
2026-05-07 07:58 65.85289 24.69482 943 ft 233 kts 227°
2026-05-07 07:58 65.84174 24.66638 949 ft 231 kts 226°
2026-05-07 07:58 65.83087 24.63828 924 ft 231 kts 227°
2026-05-07 07:58 65.81984 24.60935 804 ft 234 kts 224°
2026-05-07 07:59 65.80724 24.59128 424 ft 177 kts 193°
2026-05-07 07:59 65.79644 24.58720 190 ft 145 kts 188°
2026-05-07 07:59 65.78675 24.58408 94 ft 146 kts 188°
2026-05-07 07:59 65.77466 24.58018 691 ft 213 kts 189°
2026-05-07 08:00 65.75743 24.58615 1117 ft 280 kts 147°
2026-05-07 08:00 65.74577 24.62241 1187 ft 274 kts 123°
2026-05-07 08:00 65.73580 24.66086 1208 ft 261 kts 130°
2026-05-07 08:00 65.72488 24.69553 1170 ft 255 kts 130°
2026-05-07 08:01 65.71421 24.72941 1171 ft 250 kts 130°
2026-05-07 08:01 65.70381 24.76278 1170 ft 246 kts 130°
2026-05-07 08:01 65.69341 24.79546 1181 ft 243 kts 131°
2026-05-07 08:01 65.68251 24.82734 1256 ft 248 kts 134°
2026-05-07 08:02 65.67082 24.85889 1473 ft 249 kts 134°
2026-05-07 08:02 65.65863 24.88893 1587 ft 255 kts 140°
2026-05-07 08:02 65.64973 24.90805 1583 ft 263 kts 141°
2026-05-07 08:02 65.63123 24.94989 1564 ft 288 kts 130°
2026-05-07 08:03 65.61754 24.98653 1528 ft 298 kts 139°
2026-05-07 08:03 65.60205 25.02111 1570 ft 305 kts 139°
2026-05-07 08:03 65.59170 25.04464 1554 ft 312 kts 138°
2026-05-07 08:03 65.57582 25.08093 1591 ft 315 kts 140°
2026-05-07 08:04 65.55974 25.11709 1491 ft 314 kts 138°
2026-05-07 08:04 65.54796 25.16085 1474 ft 311 kts 120°
2026-05-07 08:04 65.53566 25.20300 1364 ft 305 kts 137°
2026-05-07 08:04 65.51892 25.23335 1337 ft 298 kts 152°
2026-05-07 08:05 65.50093 25.25772 1343 ft 295 kts 153°
2026-05-07 08:05 65.48258 25.27934 1368 ft 291 kts 160°
2026-05-07 08:05 65.46330 25.29199 1470 ft 283 kts 176°
2026-05-07 08:05 65.44461 25.28320 1479 ft 280 kts 203°
2026-05-07 08:06 65.42621 25.26632 1352 ft 285 kts 200°
2026-05-07 08:06 65.40701 25.25388 1302 ft 287 kts 191°
2026-05-07 08:06 65.38706 25.24766 1235 ft 290 kts 188°
2026-05-07 08:06 65.36708 25.24276 1232 ft 288 kts 187°
2026-05-07 08:07 65.34735 25.23727 1353 ft 284 kts 190°
2026-05-07 08:07 65.32735 25.23463 1431 ft 300 kts 167°
2026-05-07 08:07 65.30767 25.25437 1498 ft 310 kts 168°
2026-05-07 08:07 65.28611 25.25544 1457 ft 314 kts 189°
2026-05-07 08:08 65.26456 25.24797 1465 ft 311 kts 191°
2026-05-07 08:08 65.24308 25.24364 1434 ft 312 kts 181°
2026-05-07 08:08 65.22137 25.24746 1354 ft 313 kts 176°
2026-05-07 08:08 65.19980 25.25227 1389 ft 308 kts 182°
2026-05-07 08:09 65.18023 25.23420 1248 ft 305 kts 209°
2026-05-07 08:09 65.15989 25.22149 1264 ft 306 kts 182°
2026-05-07 08:09 65.13885 25.22851 1400 ft 305 kts 169°
2026-05-07 08:09 65.12185 25.25560 1628 ft 305 kts 123°
2026-05-07 08:10 65.10986 25.29807 1298 ft 316 kts 136°
2026-05-07 08:10 65.09051 25.31821 1302 ft 302 kts 167°
2026-05-07 08:10 65.07119 25.32883 1257 ft 276 kts 171°
2026-05-07 08:10 65.05284 25.33863 1198 ft 261 kts 169°
2026-05-07 08:11 65.03580 25.34956 1154 ft 253 kts 167°
2026-05-07 08:11 65.01922 25.36101 1180 ft 246 kts 166°
2026-05-07 08:11 65.00288 25.37300 1123 ft 246 kts 165°
2026-05-07 08:11 64.98662 25.38625 1044 ft 248 kts 158°
2026-05-07 08:12 64.97182 25.40742 968 ft 250 kts 150°
2026-05-07 08:12 64.95709 25.42951 853 ft 248 kts 150°
2026-05-07 08:12 64.94298 25.45059 803 ft 230 kts 151°
2026-05-07 08:12 64.92925 25.46283 895 ft 192 kts 181°
2026-05-07 08:13 64.91831 25.45457 812 ft 153 kts 218°
2026-05-07 08:13 64.91127 25.43667 688 ft 148 kts 259°
2026-05-07 08:13 64.91503 25.41451 482 ft 152 kts 296°
2026-05-07 08:13 64.92043 25.39264 278 ft 154 kts 301°
2026-05-07 08:14 64.92584 25.37176 48 ft 140 kts 300°
2026-05-07 08:14 64.92990 25.35527 45 ft 96 kts 304°
2026-05-07 08:14 64.93240 25.34573 43 ft 48 kts 301°
2026-05-07 08:14 64.93354 25.34125 45 ft 21 kts 300°
2026-05-07 08:15 64.93361 25.33907 44 ft 13 kts 218°
2026-05-07 08:15 64.93276 25.33788 40 ft 14 kts 193°
2026-05-07 08:15 64.93210 25.33744 40 ft 5 kts 252°
2026-05-07 08:15 64.93213 25.33697 40 ft 0 kts 282°